TimeEST,TemperatureF,Dew PointF,Humidity,Sea Level PressureIn,VisibilityMPH,Wind Direction,Wind SpeedMPH,Gust SpeedMPH,PrecipitationIn,Events,Conditions,WindDirDegrees,DateUTC
12:15 AM,-8.5,-12.3,83,30.29,10.0,West,6.9,-,N/A,,Clear,270,2014-03-02 05:15:00
12:35 AM,-8.7,-11.9,86,30.30,10.0,West,6.9,-,N/A,,Clear,270,2014-03-02 05:35:00
12:54 AM,-9.4,-12.1,88,30.30,10.0,West,5.8,-,N/A,,Clear,260,2014-03-02 05:54:00
1:15 AM,-8.0,-10.5,89,30.30,10.0,West,5.8,-,N/A,,Clear,260,2014-03-02 06:15:00
1:35 AM,-8.5,-10.8,89,30.31,10.0,West,5.8,-,N/A,,Clear,260,2014-03-02 06:35:00
1:55 AM,-10.5,-12.6,90,30.31,10.0,West,5.8,-,N/A,,Clear,270,2014-03-02 06:55:00
2:15 AM,-10.5,-12.6,90,30.30,7.0,West,5.8,-,N/A,,Scattered Clouds,280,2014-03-02 07:15:00
2:35 AM,-10.7,-13.0,89,30.30,10.0,West,6.9,-,N/A,,Clear,280,2014-03-02 07:35:00
2:54 AM,-10.3,-13.0,88,30.30,10.0,West,6.9,-,N/A,,Scattered Clouds,270,2014-03-02 07:54:00
3:15 AM,-10.5,-13.0,89,30.30,10.0,West,8.1,-,N/A,,Scattered Clouds,260,2014-03-02 08:15:00
3:35 AM,-10.8,-13.5,88,30.30,10.0,West,8.1,-,N/A,,Scattered Clouds,260,2014-03-02 08:35:00
3:54 AM,-10.8,-13.5,88,30.31,10.0,West,8.1,-,N/A,,Clear,260,2014-03-02 08:54:00
4:15 AM,-11.2,-13.5,89,30.31,10.0,West,5.8,-,N/A,,Clear,260,2014-03-02 09:15:00
4:35 AM,-12.8,-15.2,89,30.31,10.0,WSW,5.8,-,N/A,,Clear,250,2014-03-02 09:35:00
4:55 AM,-15.2,-17.3,90,30.32,10.0,West,5.8,-,N/A,,Clear,260,2014-03-02 09:55:00
5:15 AM,-16.2,-18.4,90,30.32,10.0,West,6.9,-,N/A,,Clear,260,2014-03-02 10:15:00
5:35 AM,-12.5,-15.0,89,30.32,10.0,West,6.9,-,N/A,,Clear,270,2014-03-02 10:35:00
5:55 AM,-13.5,-15.9,89,30.33,10.0,WSW,4.6,-,N/A,,Clear,250,2014-03-02 10:55:00
6:15 AM,-16.1,-18.8,88,30.33,10.0,WSW,3.5,-,N/A,,Clear,250,2014-03-02 11:15:00
6:35 AM,-17.9,-20.2,89,30.33,10.0,WSW,4.6,-,N/A,,Clear,240,2014-03-02 11:35:00
6:54 AM,-18.8,-21.3,88,30.32,10.0,WSW,3.5,-,N/A,,Clear,240,2014-03-02 11:54:00
7:15 AM,-17.7,-20.2,88,30.33,10.0,WSW,4.6,-,N/A,,Clear,240,2014-03-02 12:15:00
7:35 AM,-20.2,-23.1,87,30.32,10.0,WSW,5.8,-,N/A,,Clear,250,2014-03-02 12:35:00
7:54 AM,-15.5,-17.7,90,30.33,10.0,WSW,5.8,-,N/A,,Clear,250,2014-03-02 12:54:00
8:15 AM,-14.1,-16.8,88,30.33,10.0,West,6.9,-,N/A,,Clear,260,2014-03-02 13:15:00
8:35 AM,-12.3,-15.2,87,30.33,10.0,West,8.1,-,N/A,,Clear,260,2014-03-02 13:35:00
8:55 AM,-10.7,-14.1,85,30.32,10.0,West,8.1,-,N/A,,Clear,260,2014-03-02 13:55:00
9:14 AM,-9.0,-12.6,84,30.32,10.0,West,11.5,-,N/A,,Clear,270,2014-03-02 14:14:00
9:35 AM,-7.6,-11.4,84,30.32,10.0,West,10.4,-,N/A,,Clear,260,2014-03-02 14:35:00
9:55 AM,-6.2,-10.5,82,30.32,10.0,West,11.5,18.4,N/A,,Clear,280,2014-03-02 14:55:00
10:15 AM,-5.8,-10.7,79,30.31,10.0,WNW,11.5,-,N/A,,Clear,290,2014-03-02 15:15:00
10:35 AM,-5.1,-11.0,76,30.31,10.0,West,9.2,-,N/A,,Clear,270,2014-03-02 15:35:00
10:55 AM,-3.3,-10.7,71,30.31,10.0,West,5.8,-,N/A,,Clear,280,2014-03-02 15:55:00
11:15 AM,-2.4,-10.8,67,30.31,10.0,West,5.8,-,N/A,,Clear,260,2014-03-02 16:15:00
11:35 AM,-0.9,-10.1,65,30.30,10.0,West,4.6,-,N/A,,Clear,270,2014-03-02 16:35:00
11:54 AM,0.9,-9.9,61,30.30,10.0,West,6.9,-,N/A,,Clear,280,2014-03-02 16:54:00
12:15 PM,1.6,-10.3,58,30.30,10.0,West,9.2,-,N/A,,Clear,280,2014-03-02 17:15:00
12:35 PM,2.1,-10.8,55,30.30,10.0,West,13.8,-,N/A,,Clear,260,2014-03-02 17:35:00
12:54 PM,2.3,-11.4,53,30.29,10.0,West,12.7,-,N/A,,Clear,270,2014-03-02 17:54:00
1:15 PM,2.8,-11.6,51,30.28,7.0,West,12.7,-,N/A,,Clear,280,2014-03-02 18:15:00
1:35 PM,3.2,-11.9,50,30.27,10.0,WNW,12.7,19.6,N/A,,Clear,290,2014-03-02 18:35:00
1:55 PM,3.0,-11.9,50,30.26,7.0,West,11.5,23.0,N/A,,Clear,280,2014-03-02 18:55:00
2:15 PM,3.6,-11.2,50,30.26,10.0,West,11.5,20.7,N/A,,Clear,280,2014-03-02 19:15:00
2:35 PM,3.4,-11.0,51,30.25,10.0,West,12.7,18.4,N/A,,Clear,280,2014-03-02 19:35:00
2:55 PM,3.4,-11.0,51,30.25,10.0,WNW,12.7,17.3,N/A,,Clear,290,2014-03-02 19:55:00
3:15 PM,3.4,-9.8,54,30.25,10.0,WNW,13.8,19.6,N/A,,Clear,290,2014-03-02 20:15:00
3:34 PM,3.0,-9.2,57,30.26,7.0,WNW,18.4,-,N/A,,Clear,290,2014-03-02 20:34:00
3:55 PM,2.8,-9.2,57,30.26,10.0,West,15.0,-,N/A,,Clear,270,2014-03-02 20:55:00
4:15 PM,2.3,-9.6,58,30.26,10.0,WNW,10.4,-,N/A,,Clear,290,2014-03-02 21:15:00
4:34 PM,2.3,-10.5,55,30.25,10.0,WNW,12.7,-,N/A,,Clear,290,2014-03-02 21:34:00
4:55 PM,1.8,-11.2,55,30.25,10.0,West,13.8,17.3,N/A,,Clear,280,2014-03-02 21:55:00
5:15 PM,1.4,-11.2,56,30.25,10.0,NW,8.1,-,N/A,,Clear,320,2014-03-02 22:15:00
5:35 PM,0.9,-11.0,57,30.25,10.0,WNW,8.1,-,N/A,,Clear,300,2014-03-02 22:35:00
5:55 PM,-0.4,-11.2,60,30.26,10.0,NW,8.1,-,N/A,,Clear,310,2014-03-02 22:55:00
6:15 PM,-0.8,-11.0,62,30.26,10.0,NNW,6.9,-,N/A,,Clear,330,2014-03-02 23:15:00
6:35 PM,-1.7,-11.0,64,30.26,10.0,NNW,5.8,-,N/A,,Clear,330,2014-03-02 23:35:00
6:55 PM,-2.6,-10.1,70,30.27,10.0,NW,5.8,-,N/A,,Clear,310,2014-03-02 23:55:00
7:15 PM,-3.3,-9.4,75,30.28,10.0,NW,6.9,-,N/A,,Clear,310,2014-03-03 00:15:00
7:35 PM,-3.8,-9.6,76,30.29,10.0,NW,6.9,-,N/A,,Clear,310,2014-03-03 00:35:00
7:55 PM,-4.2,-9.8,77,30.30,10.0,WNW,5.8,-,N/A,,Clear,300,2014-03-03 00:55:00
8:14 PM,-4.9,-10.1,78,30.30,10.0,WNW,6.9,-,N/A,,Scattered Clouds,300,2014-03-03 01:14:00
8:35 PM,-4.9,-9.8,80,30.31,10.0,WNW,5.8,-,N/A,,Mostly Cloudy,300,2014-03-03 01:35:00
8:55 PM,-5.6,-9.9,82,30.31,10.0,WNW,6.9,-,N/A,,Scattered Clouds,300,2014-03-03 01:55:00
9:15 PM,-4.4,-8.7,82,30.31,10.0,WNW,5.8,-,N/A,,Clear,300,2014-03-03 02:15:00
9:35 PM,-4.9,-9.2,82,30.31,10.0,WNW,5.8,-,N/A,,Clear,300,2014-03-03 02:35:00
9:55 PM,-5.4,-9.4,83,30.32,10.0,WNW,5.8,-,N/A,,Clear,300,2014-03-03 02:55:00
10:15 PM,-6.5,-10.5,83,30.32,10.0,WNW,5.8,-,N/A,,Clear,290,2014-03-03 03:15:00
10:35 PM,-7.4,-11.0,84,30.32,10.0,West,5.8,-,N/A,,Clear,280,2014-03-03 03:35:00
10:55 PM,-9.0,-12.1,86,30.31,10.0,West,5.8,-,N/A,,Clear,260,2014-03-03 03:55:00
11:15 PM,-9.2,-11.9,88,30.31,10.0,West,6.9,-,N/A,,Clear,270,2014-03-03 04:15:00
11:35 PM,-8.7,-11.4,88,30.31,10.0,West,8.1,-,N/A,,Clear,270,2014-03-03 04:35:00
11:54 PM,-8.7,-11.4,88,30.32,10.0,West,8.1,-,N/A,,Clear,260,2014-03-03 04:54:00